Location: Bacharowice
(49.9333°N, 19.5833°E)
Time: 09:14:28
(UTC+00:00)

ERBS - Pass Details

Date: 11 May 2021
Orbit: 399 x 417 km, 57.0° (Epoch: 21 June)

Event Time Altitude Azimuth Distance (km) Brightness Sun altitude
Rises 20:04:06 0° 299° (WNW) 2,349 7.4 -14.0°
Reaches altitude 10° 20:06:22 10° 312° (NW) 1,490 6.4 -14.2°
Maximum altitude 20:09:18 28° 13° (NNE) 820 4.1 -14.5°
Drops below altitude 10° 20:12:14 10° 75° (ENE) 1,496 4.8 -14.7°
Enters shadow 20:12:36 - 78° (ENE) 1,626 5.0 -14.8°
